Location: Mentone
(34.5413°N, 85.5351°W)
Time: 00:22:16
(UTC-05:00)

Tiros 1 despin weight - All Passes

Search period start: 31 July 2014 00:00
Search period end: 10 August 2014 00:00
Orbit: 602 x 653 km, 48.2° (Epoch: 30 July)

Date Brightness Start Highest point End Pass type
(mag) Time Alt. Az. Time Alt. Az. Time Alt. Az.
31 Jul - 00:01:20 10° WNW 00:05:45 63° SW 00:10:08 10° SE visible
31 Jul - 15:48:40 10° SSW 15:53:06 44° SE 15:57:29 10° ENE daylight
31 Jul - 17:30:40 10° W 17:34:56 35° NNW 17:39:08 10° NE daylight
31 Jul - 19:15:00 10° NW 19:17:44 15° N 19:20:26 10° NNE daylight
31 Jul - 20:57:57 10° NNW 21:00:55 17° NNE 21:03:51 10° NE visible
31 Jul - 22:39:11 10° NW 22:43:32 47° NNE 22:47:49 10° ESE visible
01 Aug - 00:21:18 10° WNW 00:25:06 28° SW 00:28:52 10° SSE visible
01 Aug - 14:28:44 10° SSE 14:31:15 14° SE 14:33:46 10° E daylight
01 Aug - 16:07:52 10° SW 16:12:33 86° NW 16:17:10 10° NE daylight
01 Aug - 17:51:08 10° WNW 17:54:48 23° NNW 17:58:25 10° NNE daylight
01 Aug - 19:35:24 10° NNW 19:37:52 14° N 19:40:19 10° NNE daylight
01 Aug - 21:17:18 10° NNW 21:20:56 23° NNE 21:24:31 10° ENE visible
01 Aug - 22:58:37 10° NW 23:03:07 87° SW 23:07:34 10° SE visible
02 Aug - 00:42:39 10° WSW 00:44:18 12° SW 00:45:55 10° SSW night (unlit)
02 Aug - 14:46:20 10° SSW 14:50:29 32° SE 14:54:37 10° ENE daylight
02 Aug - 16:27:42 10° WSW 16:32:10 44° NNW 16:36:35 10° NE daylight
02 Aug - 18:11:49 10° NW 18:14:49 17° NNW 18:17:47 10° NNE daylight
02 Aug - 19:55:15 10° NNW 19:58:01 16° N 20:00:45 10° NE daylight
02 Aug - 21:36:35 10° NW 21:40:47 37° NNE 21:44:55 10° E visible
02 Aug - 23:18:22 10° WNW 23:22:32 38° SW 23:26:39 10° SSE visible
03 Aug - 15:05:12 10° SW 15:09:52 71° SE 15:14:29 10° ENE daylight
03 Aug - 16:48:00 10° W 16:51:57 27° NNW 16:55:52 10° NE daylight
03 Aug - 18:32:23 10° NW 18:34:56 15° N 18:37:28 10° NNE daylight
03 Aug - 20:14:42 10° NNW 20:18:05 20° NNE 20:21:25 10° ENE visible
03 Aug - 21:55:57 10° NW 22:00:27 70° NE 22:04:53 10° ESE visible
03 Aug - 23:38:52 10° W 23:41:47 17° SW 23:44:40 10° S visible
04 Aug - 13:44:10 10° S 13:47:54 24° SE 13:51:36 10° E daylight
04 Aug - 15:24:48 10° WSW 15:29:25 58° NW 15:33:59 10° NE daylight
04 Aug - 17:08:37 10° WNW 17:11:55 19° NNW 17:15:11 10° NNE daylight
04 Aug - 18:52:28 10° NNW 18:55:05 15° N 18:57:41 10° NE daylight
04 Aug - 20:33:59 10° NW 20:38:00 30° NNE 20:41:57 10° E visible
04 Aug - 22:15:32 10° WNW 22:19:56 54° SW 22:24:16 10° SE visible
05 Aug - 14:02:39 10° SSW 14:07:13 51° SE 14:11:44 10° ENE daylight
05 Aug - 15:44:55 10° W 15:49:08 32° NNW 15:53:18 10° NE daylight
05 Aug - 17:29:16 10° NW 17:32:00 15° N 17:34:42 10° NNE daylight
05 Aug - 19:12:03 10° NNW 19:15:12 18° NNE 19:18:18 10° ENE daylight
05 Aug - 20:53:18 10° NW 20:57:45 53° NNE 21:02:07 10° ESE visible
05 Aug - 22:35:38 10° WNW 22:39:14 24° SW 22:42:48 10° S visible
06 Aug - 12:42:17 10° S 12:45:19 17° SE 12:48:21 10° E daylight
06 Aug - 14:21:58 10° WSW 14:26:41 76° NW 14:31:21 10° NE daylight
06 Aug - 16:05:25 10° WNW 16:09:01 21° NNW 16:12:36 10° NNE daylight
06 Aug - 17:49:35 10° NNW 17:52:09 15° N 17:54:42 10° NE daylight
06 Aug - 19:31:22 10° NW 19:35:10 25° NNE 19:38:55 10° ENE daylight
06 Aug - 21:12:46 10° NW 21:17:18 76° SW 21:21:45 10° SE visible
07 Aug - 13:00:14 10° SSW 13:04:34 37° SE 13:08:53 10° ENE daylight
07 Aug - 14:41:53 10° W 14:46:20 40° NNW 14:50:43 10° NE daylight
07 Aug - 16:26:06 10° NW 16:29:04 16° N 16:32:00 10° NNE daylight
07 Aug - 18:09:20 10° NNW 18:12:17 16° N 18:15:11 10° NE daylight
07 Aug - 19:50:40 10° NW 19:55:00 41° NNE 19:59:15 10° E daylight
07 Aug - 21:32:36 10° WNW 21:36:40 33° SW 21:40:40 10° SSE visible
08 Aug - 11:40:59 10° SSE 11:42:46 12° SE 11:44:33 10° ESE daylight
08 Aug - 13:19:15 10° SW 13:23:58 81° SE 13:28:40 10° NE daylight
08 Aug - 15:02:15 10° WNW 15:06:09 25° NNW 15:10:00 10° NE daylight
08 Aug - 16:46:35 10° NW 16:49:11 15° N 16:51:47 10° NNE daylight
08 Aug - 18:28:45 10° NNW 18:32:19 22° NNE 18:35:50 10° ENE daylight
08 Aug - 20:10:03 10° NW 20:14:37 80° NE 20:19:06 10° SE visible
08 Aug - 21:53:22 10° W 21:55:52 15° SW 21:58:21 10° SSW visible
09 Aug - 11:57:58 10° S 12:01:57 27° SE 12:05:55 10° ENE daylight
09 Aug - 13:38:56 10° WSW 13:43:32 51° NNW 13:48:07 10° NE daylight
09 Aug - 15:22:53 10° WNW 15:26:08 18° NNW 15:29:21 10° NNE daylight
09 Aug - 17:06:34 10° NNW 17:09:20 15° N 17:12:05 10° NE daylight
09 Aug - 18:48:02 10° NW 18:52:12 33° NNE 18:56:18 10° E daylight
09 Aug - 20:29:42 10° WNW 20:34:04 47° SW 20:38:21 10° SSE visible
